Location: ?
(35.4996°N, 139.3166°E)
Time: 14:37:54
(UTC+00:00)

Delta 2 Rocket - Pass Details

Date: 18 April 2024
Orbit: 400 x 680 km, 35.6° (Epoch: 19 May)

Event Time Altitude Azimuth Distance (km) Brightness Sun altitude
Exits shadow 18:06:30 59° 195° (SSW) 788 3.8 -22.9°
Maximum altitude 18:07:00 63° 164° (SSE) 761 3.8 -22.8°
Drops below altitude 10° 18:11:52 10° 83° (E) 2,084 7.1 -21.9°
Sets 18:14:13 0° 81° (E) 2,966 8.2 -21.5°
